| time (UTC) | temp F | wind direction | speed MPH | gust MPH | rain 1hr in | rain 24hr in | rain mn in | humidity % | barometer mb |
| 20260508085123 | 69 | 252 | 6.0 | 12.0 | 0.00 | 0.00 | 0.00 | 41 | 1001.7 |
| 20260508083623 | 70 | 259 | 5.0 | 10.0 | 0.00 | 0.00 | 0.00 | 41 | 1001.7 |
| 20260508082122 | 69 | 252 | 6.0 | 12.0 | 0.00 | 0.00 | 0.00 | 48 | 1001.4 |
| 20260508080622 | 69 | 256 | 7.0 | 12.0 | 0.00 | 0.00 | 0.00 | 46 | 1001.2 |
| 20260508075122 | 70 | 271 | 7.0 | 12.0 | 0.00 | 0.00 | 0.00 | 47 | 1000.9 |
| 20260508073622 | 71 | 267 | 7.0 | 15.0 | 0.00 | 0.00 | 0.00 | 43 | 1000.9 |
| 20260508072122 | 71 | 271 | 7.0 | 13.0 | 0.00 | 0.00 | 0.00 | 46 | 1000.6 |
| 20260508070622 | 71 | 269 | 11.0 | 19.0 | 0.00 | 0.00 | 0.00 | 45 | 1000.5 |
| 20260508065123 | 72 | 268 | 7.0 | 12.0 | 0.00 | 0.00 | 0.00 | 50 | 1000.5 |
| 20260508063623 | 71 | 258 | 6.0 | 11.0 | 0.00 | 0.00 | 0.00 | 52 | 1000.5 |
| 20260508062123 | 72 | 251 | 7.0 | 12.0 | 0.00 | 0.00 | 0.00 | 48 | 1000.6 |
| 20260508060624 | 72 | 241 | 7.0 | 15.0 | 0.00 | 0.00 | 0.00 | 48 | 1000.5 |
| 20260508055123 | 72 | 215 | 5.0 | 12.0 | 0.00 | 0.00 | 0.00 | 49 | 1000.7 |
| 20260508053624 | 72 | 247 | 6.0 | 12.0 | 0.00 | 0.00 | 0.00 | 48 | 1000.7 |
| 20260508052124 | 71 | 241 | 7.0 | 12.0 | 0.00 | 0.00 | 0.00 | 52 | 1000.8 |
| 20260508050623 | 72 | 229 | 6.0 | 12.0 | 0.00 | 0.00 | 0.00 | 52 | 1000.7 |
| 20260508045122 | 72 | 236 | 7.0 | 15.0 | 0.00 | 0.00 | 0.00 | 52 | 1001.0 |
| 20260508043622 | 73 | 259 | 6.0 | 12.0 | 0.00 | 0.00 | 0.00 | 49 | 1000.8 |
| 20260508042123 | 72 | 229 | 7.0 | 12.0 | 0.00 | 0.00 | 0.00 | 53 | 1000.7 |
| 20260508040623 | 72 | 241 | 6.0 | 12.0 | 0.00 | 0.00 | 0.00 | 52 | 1001.0 |
| 20260508035123 | 72 | 229 | 6.0 | 13.0 | 0.00 | 0.00 | 0.00 | 53 | 1001.0 |
| 20260508033622 | 71 | 222 | 7.0 | 13.0 | 0.00 | 0.00 | 0.00 | 52 | 1001.1 |
| 20260508032123 | 70 | 237 | 5.0 | 11.0 | 0.00 | 0.00 | 0.00 | 52 | 1001.0 |
| 20260508030622 | 70 | 239 | 6.0 | 9.0 | 0.00 | 0.00 | 0.00 | 52 | 1001.0 |
| 20260508025122 | 70 | 219 | 5.0 | 9.0 | 0.00 | 0.00 | 0.00 | 57 | 1001.0 |
| 20260508023623 | 70 | 225 | 5.0 | 10.0 | 0.00 | 0.00 | 0.00 | 62 | 1001.3 |
| 20260508022123 | 69 | 259 | 6.0 | 9.0 | 0.00 | 0.00 | 0.00 | 62 | 1001.3 |
| 20260508020622 | 69 | 240 | 5.0 | 12.0 | 0.00 | 0.00 | 0.00 | 62 | 1001.3 |
| 20260508015124 | 70 | 235 | 3.0 | 9.0 | 0.00 | 0.00 | 0.00 | 63 | 1001.3 |
| 20260508013624 | 69 | 241 | 4.0 | 9.0 | 0.00 | 0.00 | 0.00 | 62 | 1001.4 |
| 20260508012123 | 70 | 230 | 4.0 | 10.0 | 0.00 | 0.00 | 0.00 | 61 | 1001.2 |
| 20260508010623 | 71 | 207 | 5.0 | 9.0 | 0.00 | 0.00 | 0.00 | 62 | 1001.3 |
| 20260508005124 | 71 | 220 | 4.0 | 8.0 | 0.00 | 0.00 | 0.00 | 62 | 1001.0 |
| 20260508003623 | 71 | 182 | 3.0 | 6.0 | 0.00 | 0.00 | 0.00 | 62 | 1000.7 |
| 20260508002122 | 70 | 189 | 3.0 | 7.0 | 0.00 | 0.00 | 0.00 | 64 | 1001.0 |
| 20260508000622 | 69 | 266 | 6.0 | 11.0 | 0.00 | 0.00 | 0.00 | 64 | 1000.8 |
| 20260507235123 | 69 | 244 | 5.0 | 10.0 | 0.00 | 0.00 | 0.00 | 64 | 1001.1 |
| 20260507233623 | 69 | 268 | 6.0 | 12.0 | 0.00 | 0.00 | 0.00 | 65 | 1001.0 |
| 20260507232123 | 70 | 271 | 6.0 | 11.0 | 0.00 | 0.00 | 0.00 | 62 | 1000.9 |
| 20260507230622 | 72 | 245 | 5.0 | 9.0 | 0.00 | 0.00 | 0.00 | 53 | 1000.7 |
| 20260507225123 | 73 | 262 | 4.0 | 9.0 | 0.00 | 0.00 | 0.00 | 49 | 1000.4 |
| 20260507223623 | 74 | 165 | 0.0 | 2.0 | 0.00 | 0.00 | 0.00 | 59 | 1000.5 |
| 20260507222123 | 71 | 99 | 2.0 | 3.0 | 0.00 | 0.00 | 0.00 | 69 | 1000.3 |
| 20260507220622 | 69 | 100 | 3.0 | 5.0 | 0.00 | 0.00 | 0.00 | 73 | 1000.4 |
| 20260507215122 | 69 | 103 | 1.0 | 3.0 | 0.00 | 0.00 | 0.00 | 79 | 1000.7 |
| 20260507213622 | 67 | 138 | 1.0 | 3.0 | 0.00 | 0.00 | 0.00 | 81 | 1000.7 |
| 20260507212123 | 66 | 105 | 3.0 | 6.0 | 0.00 | 0.00 | 0.00 | 81 | 1000.5 |
| 20260507210622 | 66 | 125 | 2.0 | 5.0 | 0.00 | 0.00 | 0.00 | 81 | 1000.4 |
| 20260507205122 | 66 | 116 | 2.0 | 5.0 | 0.00 | 0.00 | 0.00 | 81 | 1000.3 |
| 20260507203622 | 65 | 125 | 1.0 | 3.0 | 0.00 | 0.00 | 0.00 | 81 | 1000.2 |
| 20260507202122 | 65 | 122 | 1.0 | 3.0 | 0.00 | 0.00 | 0.00 | 81 | 1000.4 |
| 20260507200622 | 65 | 141 | 0.0 | 2.0 | 0.00 | 0.00 | 0.00 | 82 | 1000.4 |
| 20260507195124 | 65 | 194 | 0.0 | 1.0 | 0.00 | 0.00 | 0.00 | 83 | 1000.5 |
| 20260507193623 | 65 | 221 | 1.0 | 3.0 | 0.00 | 0.00 | 0.00 | 83 | 1000.1 |
| 20260507192122 | 65 | 155 | 0.0 | 2.0 | 0.00 | 0.00 | 0.00 | 83 | 1000.1 |
| 20260507190622 | 65 | 187 | 2.0 | 3.0 | 0.00 | 0.00 | 0.00 | 83 | 1000.4 |
| 20260507185123 | 65 | 195 | 2.0 | 4.0 | 0.00 | 0.00 | 0.00 | 83 | 1000.0 |
| 20260507183623 | 65 | 193 | 3.0 | 7.0 | 0.00 | 0.00 | 0.00 | 83 | 1000.2 |
| 20260507182123 | 65 | 213 | 3.0 | 6.0 | 0.00 | 0.00 | 0.00 | 83 | 1000.5 |
| 20260507180623 | 65 | 217 | 2.0 | 6.0 | 0.00 | 0.00 | 0.00 | 83 | 1000.6 |
| 20260507175123 | 65 | 218 | 2.0 | 4.0 | 0.00 | 0.00 | 0.00 | 82 | 1000.7 |
| 20260507173622 | 65 | 205 | 1.0 | 3.0 | 0.00 | 0.00 | 0.00 | 82 | 1000.5 |
| 20260507172122 | 65 | 264 | 2.0 | 4.0 | 0.00 | 0.00 | 0.00 | 81 | 1000.5 |
| 20260507170622 | 66 | 265 | 1.0 | 5.0 | 0.00 | 0.00 | 0.00 | 80 | 1000.5 |
| 20260507165122 | 66 | 240 | 1.0 | 2.0 | 0.00 | 0.00 | 0.00 | 79 | 1000.5 |
| 20260507163623 | 66 | 238 | 0.0 | 1.0 | 0.00 | 0.00 | 0.00 | 78 | 1000.5 |
| 20260507162122 | 66 | 257 | 1.0 | 3.0 | 0.00 | 0.00 | 0.00 | 78 | 1000.7 |
| 20260507160622 | 66 | 225 | 0.0 | 2.0 | 0.00 | 0.00 | 0.00 | 77 | 1000.7 |
| 20260507155123 | 66 | 225 | 0.0 | 0.0 | 0.00 | 0.00 | 0.00 | 76 | 1000.9 |
| 20260507153623 | 67 | 225 | 0.0 | 0.0 | 0.00 | 0.00 | 0.00 | 76 | 1001.1 |
| 20260507152122 | 67 | 193 | 0.0 | 2.0 | 0.00 | 0.00 | 0.00 | 76 | 1001.3 |
| 20260507150622 | 67 | 181 | 0.0 | 2.0 | 0.00 | 0.00 | 0.00 | 76 | 1001.1 |
| 20260507145122 | 67 | 225 | 0.0 | 1.0 | 0.00 | 0.00 | 0.00 | 76 | 1001.1 |
| 20260507143623 | 67 | 225 | 0.0 | 0.0 | 0.00 | 0.00 | 0.00 | 75 | 1001.1 |
| 20260507142122 | 67 | 225 | 0.0 | 1.0 | 0.00 | 0.00 | 0.00 | 75 | 1001.2 |
| 20260507140623 | 67 | 225 | 0.0 | 1.0 | 0.00 | 0.00 | 0.00 | 74 | 1001.4 |
| 20260507135123 | 67 | 269 | 1.0 | 3.0 | 0.00 | 0.00 | 0.00 | 74 | 1001.5 |
| 20260507133623 | 67 | 271 | 1.0 | 3.0 | 0.00 | 0.00 | 0.00 | 74 | 1001.7 |
| 20260507132122 | 66 | 270 | 0.0 | 1.0 | 0.00 | 0.00 | 0.00 | 73 | 1001.5 |
| 20260507130624 | 66 | 270 | 0.0 | 1.0 | 0.00 | 0.00 | 0.00 | 73 | 1001.3 |
| 20260507125123 | 67 | 270 | 0.0 | 0.0 | 0.00 | 0.00 | 0.00 | 72 | 1001.4 |
| 20260507123623 | 67 | 262 | 0.0 | 1.0 | 0.00 | 0.00 | 0.00 | 72 | 1001.4 |
| 20260507122122 | 67 | 225 | 0.0 | 1.0 | 0.00 | 0.00 | 0.00 | 72 | 1001.6 |
| 20260507120622 | 68 | 225 | 0.0 | 2.0 | 0.00 | 0.00 | 0.00 | 71 | 1001.3 |
| 20260507115123 | 68 | 225 | 0.0 | 2.0 | 0.00 | 0.00 | 0.00 | 71 | 1001.4 |
| 20260507113622 | 68 | 254 | 1.0 | 3.0 | 0.00 | 0.00 | 0.00 | 70 | 1001.4 |
| 20260507112122 | 69 | 252 | 1.0 | 3.0 | 0.00 | 0.00 | 0.00 | 70 | 1001.5 |
| 20260507110622 | 69 | 251 | 1.0 | 2.0 | 0.00 | 0.00 | 0.00 | 69 | 1001.3 |
| 20260507105122 | 69 | 258 | 1.0 | 3.0 | 0.00 | 0.00 | 0.00 | 69 | 1001.1 |
| 20260507103622 | 70 | 284 | 2.0 | 3.0 | 0.00 | 0.00 | 0.00 | 67 | 1001.2 |
| 20260507102122 | 70 | 194 | 1.0 | 3.0 | 0.00 | 0.00 | 0.00 | 66 | 1001.0 |
| 20260507100624 | 70 | 212 | 1.0 | 2.0 | 0.00 | 0.00 | 0.00 | 65 | 1000.9 |
| 20260507095123 | 70 | 196 | 1.0 | 2.0 | 0.00 | 0.00 | 0.00 | 64 | 1000.8 |
| 20260507093623 | 71 | 218 | 1.0 | 3.0 | 0.00 | 0.00 | 0.00 | 63 | 1000.7 |
| 20260507092123 | 72 | 223 | 2.0 | 4.0 | 0.00 | 0.00 | 0.00 | 62 | 1000.8 |
| 20260507090622 | 72 | 247 | 3.0 | 5.0 | 0.00 | 0.00 | 0.00 | 62 | 1001.0 |